Regional Weather Roundup
Issued by NWS

Home | Current Version | Previous Version | Graphics & Text | Print | Product List | Glossary On
Versions: 1 2 3 4 5 6 7 8 9 10 11 12 13 14 15 16 17 18 19 20 21 22 23 24 25 26 27 28 29 30 31 32 33 34 35 36 37 38 39 40 41 42 43 44 45 46 47 48 49 50
000
ASUS43 KLMK 190202
RWRKY
KENTUCKY REGIONAL WEATHER ROUNDUP
NATIONAL WEATHER SERVICE LOUISVILLE KY
900 PM EST WED JAN 18 2017

NOTE "FAIR" INDICATES FEW OR NO CLOUDS BELOW 12,000 FEET
WITH NO SIGNIFICANT WEATHER AND/OR OBSTRUCTIONS TO VISIBILITY.

KYZ001>023-026-027-061>063-070>075-190300-
WESTERN AND SOUTH CENTRAL KENTUCKY

CITY           SKY/WX    TMP DP  RH WIND       PRES   REMARKS
PADUCAH        MOCLDY    44  39  82 CALM      30.11F
HENDERSON      MOCLDY    39  34  81 CALM      30.13S
OWENSBORO      MOCLDY    41  37  86 CALM      30.15S
HOPKINSVILLE   MOCLDY    45  40  83 CALM      30.13R
BOWLING GREEN  MOCLDY    43  38  82 CALM      30.14S
GLASGOW        NOT AVBL
$$

KYZ024-025-028>034-038-045-046-053-190300-
NORTH CENTRAL KENTUCKY

CITY           SKY/WX    TMP DP  RH WIND       PRES   REMARKS
LOUISVILLE/SDF CLOUDY    42  34  73 CALM      30.15R
LOUISVILLE/LOU PTCLDY    41  35  79 CALM      30.16R
FORT KNOX      CLOUDY    37  35  94 CALM      30.12S
$$

KYZ035>037-039>044-047>052-055>060-089>105-190300-
NORTHEAST KENTUCKY

CITY           SKY/WX    TMP DP  RH WIND       PRES   REMARKS
LEXINGTON      CLOUDY    39  35  86 CALM      30.15R
COVINGTON      CLOUDY    40  36  86 SW5       30.14F
FRANKFORT      CLOUDY    37  33  85 CALM      30.14R
$$

KYZ054-064>069-076>088-106>120-190300-
SOUTHEAST KENTUCKY

CITY           SKY/WX    TMP DP  RH WIND       PRES   REMARKS
JACKSON        CLOUDY    42  36  79 CALM      30.13S
LONDON         CLOUDY    39  35  86 CALM      30.13S
SOMERSET       CLOUDY    37  37 100 CALM      30.15S
MIDDLESBORO    CLOUDY    41  39  94 CALM      30.14S
MONTICELLO     PTCLDY    38  37  97 N7        30.16S WCI  33
$$





USA.gov is the U.S. government's official web portal to all federal, state and local government web resources and services.